Back to catalog

STARLINK-37370

AliveCommunicationsSSO
NORAD 68806·PAYLOAD·🇺🇸 United States

Launched Apr 23, 2026 from Vandenberg Space Force Base

Loading…

Next Passes (next 24 hours)

TLE

FreshSource: CelesTrak SupGP

Epoch: Sep 14, 2026, 22:56 UTC

1 68806C 26089E   26257.95604167  .00090598  00000+0  28130-2 0  2576
2 68806  97.2846 103.7334 0001873  93.4500 328.5656 15.33385825    16

Track STARLINK-37370 in real time with AllMySat

Download on the App Store